Weather History for Santa Fe, NM

Change the Weather History Date:

Thursday, September 12, 2013

  Actual Average Record
Temperature  
Mean Temperature 62 °F -  
Max Temperature 66 °F 78 °F 88 °F (2004)
Min Temperature 57 °F 45 °F 43 °F (1978)
Degree Days  
Heating Degree Days 4    
Growing Degree Days 12 (Base 50)    
Moisture  
Dew Point 58 °F    
Average Humidity 88    
Maximum Humidity 100    
Minimum Humidity 77    
Precipitation  
Precipitation 0.55 in - - ()
Sea Level Pressure  
Sea Level Pressure 30.15 in    
Wind  
Wind Speed 7 mph (East)    
Max Wind Speed 21 mph    
Max Gust Speed 28 mph    
Visibility 8 miles    
Events Rain    
Averages and records for this station are not official NWS values.
T = Trace of Precipitation, MM = Missing Value Source: NWS Daily Summary

Daily Weather History Graph

Daily Weather History Graph

Search for Another Location

Airport:

Trip Planner

Search our weather history database for the weather conditions in past years. The results will help you decide how hot, cold, wet, or windy it might be!

Date:

Astronomy

Sep. 12, 2013 Rise Set
Actual Time 6:45 AM MDT 7:15 PM MDT
Civil Twilight 6:19 AM MDT 7:40 PM MDT
Nautical Twilight 5:49 AM MDT 8:11 PM MDT
Astronomical Twilight 5:18 AM MDT 8:41 PM MDT
Moon 2:01 PM MDT (9/12) No Moon Set
Length of Visible Light 13h 21m
Length of Day
12h 30m
Waxing Crescent, 51% of the Moon is Illuminated
Sep 12
Waxing Crescent
Sep 19
Full
Sep 26
Last Quarter
Oct 4
New
Oct 11
First Quarter

Hourly Weather History & Observations

Time (MDT) Temp. Dew Point Humidity Pressure Visibility Wind Dir Wind Speed Gust Speed Precip Events Conditions
12:36 AM 60.8 °F 55.4 °F 82% 30.28 in 10.0 mi SSE 11.5 mph - N/A   Mostly Cloudy
12:53 AM 61.0 °F 55.0 °F 81% 30.01 in 10.0 mi SE 10.4 mph - N/A   Scattered Clouds
1:53 AM 60.1 °F 55.9 °F 86% 30.01 in 10.0 mi ESE 9.2 mph - N/A   Clear
2:53 AM 60.1 °F 55.9 °F 86% 30.00 in 10.0 mi ESE 4.6 mph - N/A   Mostly Cloudy
3:36 AM 60.8 °F 55.4 °F 82% 30.27 in 10.0 mi SE 4.6 mph - N/A   Overcast
3:53 AM 60.1 °F 55.9 °F 86% 29.99 in 10.0 mi SSE 3.5 mph - N/A   Overcast
4:18 AM 57.2 °F 55.4 °F 94% 30.26 in 10.0 mi Calm Calm - N/A   Scattered Clouds
4:53 AM 57.9 °F 55.9 °F 93% 29.99 in 10.0 mi SW 3.5 mph - N/A   Mostly Cloudy
5:15 AM 59.0 °F 55.4 °F 88% 30.25 in 10.0 mi Calm Calm - N/A   Overcast
5:53 AM 59.0 °F 57.0 °F 93% 30.00 in 6.0 mi Calm Calm - 0.00 in Rain Light Rain
6:03 AM 57.2 °F 57.2 °F 100% 30.26 in 10.0 mi Calm Calm - 0.00 in Rain Light Rain
6:20 AM 59.0 °F 57.2 °F 94% 30.26 in 10.0 mi Calm Calm - 0.00 in   Overcast
6:43 AM 60.8 °F 57.2 °F 88% 30.26 in 10.0 mi Variable 3.5 mph - 0.00 in   Overcast
6:53 AM 59.0 °F 57.9 °F 96% 30.02 in 10.0 mi Calm Calm - 0.00 in   Overcast
7:12 AM 60.8 °F 57.2 °F 88% 30.27 in 10.0 mi North 3.5 mph - N/A   Overcast
7:24 AM 59.0 °F 57.2 °F 94% 30.27 in 10.0 mi NNE 3.5 mph - N/A   Mostly Cloudy
7:53 AM 60.1 °F 57.9 °F 93% 30.04 in 10.0 mi Calm Calm - N/A   Overcast
8:09 AM 60.8 °F 57.2 °F 88% 30.29 in 10.0 mi ESE 4.6 mph - N/A   Overcast
8:21 AM 60.8 °F 57.2 °F 88% 30.29 in 2.5 mi East 5.8 mph - 0.00 in Rain Light Rain
8:37 AM 60.8 °F 57.2 °F 88% 30.29 in 10.0 mi NNW 5.8 mph - 0.01 in   Overcast
8:53 AM 60.1 °F 57.9 °F 93% 30.06 in 10.0 mi NNW 4.6 mph - 0.01 in   Overcast
9:45 AM 60.8 °F 57.2 °F 88% 30.30 in 10.0 mi Calm Calm - 0.00 in   Overcast
9:53 AM 61.0 °F 57.9 °F 90% 30.06 in 6.0 mi North 3.5 mph - 0.00 in Rain Light Rain
10:14 AM 60.8 °F 59.0 °F 94% 30.31 in 2.0 mi Calm Calm - 0.01 in Rain Light Rain
10:34 AM 60.8 °F 59.0 °F 94% 30.31 in 4.0 mi NNE 4.6 mph - 0.01 in Rain Light Rain
10:53 AM 62.1 °F 59.0 °F 90% 30.06 in 2.5 mi North 9.2 mph - 0.01 in Rain Light Rain
11:38 AM 62.6 °F 59.0 °F 88% 30.29 in 10.0 mi NNE 9.2 mph - 0.00 in Rain Light Rain
11:53 AM 63.0 °F 59.0 °F 87% 30.05 in 4.0 mi NNE 9.2 mph - 0.01 in Rain Light Rain
12:46 PM 66.2 °F 60.8 °F 83% 30.26 in 10.0 mi NE 9.2 mph - 0.00 in Rain Light Rain
12:53 PM 66.0 °F 59.0 °F 78% 30.01 in 10.0 mi NE 6.9 mph - 0.00 in   Overcast
1:15 PM 64.4 °F 57.2 °F 77% 30.27 in 8.0 mi ESE 15.0 mph - 0.00 in Rain Light Rain
1:53 PM 66.0 °F 59.0 °F 78% 30.00 in 10.0 mi East 3.5 mph - 0.00 in   Overcast
2:25 PM 62.6 °F 60.8 °F 94% 30.24 in 1.8 mi East 10.4 mph 20.7 mph 0.10 in Rain Heavy Rain
2:38 PM 60.8 °F 60.8 °F 100% 30.23 in 0.8 mi ENE 4.6 mph - 0.39 in Rain Heavy Rain
2:43 PM 60.8 °F 60.8 °F 100% 30.24 in 1.0 mi Calm Calm - 0.42 in Rain Heavy Rain
2:49 PM 60.8 °F 60.8 °F 100% 30.23 in 1.8 mi Calm Calm - 0.44 in Rain Rain
2:53 PM 62.1 °F 60.1 °F 93% 30.00 in 3.0 mi NNE 3.5 mph - 0.44 in Rain Light Rain
3:45 PM 62.6 °F 60.8 °F 94% 30.21 in 10.0 mi ESE 13.8 mph 18.4 mph 0.00 in   Overcast
3:49 PM 62.6 °F 60.8 °F 94% 30.21 in 2.5 mi ESE 15.0 mph 23.0 mph 0.05 in Rain Rain
3:53 PM 63.0 °F 60.1 °F 90% 29.97 in 2.0 mi ESE 11.5 mph 23.0 mph 0.05 in Rain Rain
4:00 PM 62.6 °F 60.8 °F 94% 30.21 in 9.0 mi ESE 10.4 mph - 0.00 in Rain Light Rain
4:38 PM 64.4 °F 60.8 °F 88% 30.21 in 10.0 mi SE 12.7 mph - 0.00 in   Overcast
4:53 PM 63.0 °F 61.0 °F 93% 29.97 in 10.0 mi Variable 4.6 mph 16.1 mph 0.00 in   Overcast
5:38 PM 64.4 °F 59.0 °F 83% 30.20 in 4.0 mi SE 17.3 mph 23.0 mph 0.02 in Rain Light Rain
5:53 PM 64.0 °F 59.0 °F 84% 29.97 in 10.0 mi SE 15.0 mph - 0.02 in   Overcast
6:37 PM 64.4 °F 57.2 °F 77% 30.22 in 10.0 mi ESE 16.1 mph - N/A   Overcast
6:53 PM 64.0 °F 57.9 °F 80% 29.98 in 10.0 mi ESE 11.5 mph - 0.00 in   Overcast
7:02 PM 62.6 °F 57.2 °F 82% 30.22 in 10.0 mi SE 19.6 mph 23.0 mph N/A   Overcast
7:53 PM 62.1 °F 55.9 °F 80% 29.99 in 10.0 mi SE 20.7 mph 27.6 mph N/A   Overcast
8:53 PM 61.0 °F 55.9 °F 83% 30.01 in 10.0 mi SE 13.8 mph - N/A   Overcast
9:08 PM 60.8 °F 55.4 °F 82% 30.24 in 10.0 mi SE 11.5 mph - N/A   Overcast
9:36 PM 60.8 °F 55.4 °F 82% 30.24 in 10.0 mi SE 12.7 mph - N/A   Overcast
9:53 PM 61.0 °F 55.9 °F 83% 30.01 in 10.0 mi SE 15.0 mph 21.9 mph N/A   Overcast
10:22 PM 60.8 °F 55.4 °F 82% 30.25 in 10.0 mi SE 12.7 mph - N/A   Overcast
10:53 PM 60.1 °F 57.0 °F 90% 30.01 in 10.0 mi SE 13.8 mph - 0.00 in Rain Light Rain
11:53 PM 60.1 °F 57.9 °F 93% 30.00 in 10.0 mi SE 9.2 mph - 0.01 in   Overcast